| time (UTC) | temp C | wind direction | speed KPH | gust KPH | rain 1hr cm | rain 24hr cm | rain mn cm | humidity % | barometer mb |
| 20260507020030 | 21 | 92 | 0.0 | 1.6 | 0.00 | 0.74 | 0.74 | 91 | 1011.2 |
| 20260507014525 | 21 | 131 | 0.0 | 3.2 | 0.00 | 0.74 | 0.74 | 91 | 1011.7 |
| 20260507013019 | 21 | 160 | 1.6 | 9.7 | 0.00 | 0.74 | 0.74 | 90 | 1011.4 |
| 20260507011516 | 22 | 128 | 4.8 | 12.9 | 0.51 | 0.74 | 0.74 | 91 | 1011.7 |
| 20260507010026 | 22 | 124 | 6.4 | 17.7 | 0.58 | 0.74 | 0.74 | 90 | 1010.9 |
| 20260507004525 | 23 | 158 | 11.3 | 19.3 | 0.61 | 0.74 | 0.74 | 90 | 1011.1 |
| 20260507003025 | 24 | 221 | 9.7 | 20.9 | 0.61 | 0.74 | 0.74 | 92 | 1011.8 |
| 20260507001513 | 24 | 174 | 1.6 | 3.2 | 0.10 | 0.23 | 0.23 | 92 | 1011.2 |
| 20260507000019 | 24 | 174 | 0.0 | 3.2 | 0.03 | 0.15 | 0.15 | 92 | 1010.6 |
| 20260506234530 | 24 | 64 | 0.0 | 1.6 | 0.00 | 0.13 | 0.13 | 92 | 1009.8 |
| 20260506233036 | 24 | 109 | 0.0 | 3.2 | 0.00 | 0.13 | 0.13 | 91 | 1010.6 |
| 20260506231510 | 25 | 88 | 0.0 | 0.0 | 0.00 | 0.13 | 0.13 | 91 | 1010.5 |
| 20260506230014 | 25 | 174 | 0.0 | 6.4 | 0.00 | 0.13 | 0.13 | 89 | 1010.9 |
| 20260506224520 | 25 | 124 | 0.0 | 1.6 | 0.00 | 0.13 | 0.13 | 89 | 1010.9 |
| 20260506223003 | 25 | 113 | 0.0 | 1.6 | 0.00 | 0.13 | 0.13 | 88 | 1011.0 |
| 20260506221507 | 26 | 173 | 1.6 | 4.8 | 0.00 | 0.13 | 0.13 | 87 | 1011.2 |
| 20260506220022 | 26 | 177 | 1.6 | 9.7 | 0.00 | 0.13 | 0.13 | 86 | 1011.2 |
| 20260506214517 | 26 | 145 | 3.2 | 6.4 | 0.00 | 0.13 | 0.13 | 86 | 1011.6 |
| 20260506213022 | 27 | 173 | 0.0 | 6.4 | 0.03 | 0.13 | 0.13 | 86 | 1011.7 |
| 20260506211508 | 27 | 143 | 1.6 | 8.0 | 0.13 | 0.13 | 0.13 | 85 | 1012.0 |
| 20260506210017 | 26 | 174 | 0.0 | 3.2 | 0.13 | 0.13 | 0.13 | 88 | 1012.2 |
| 20260506204514 | 26 | 173 | 0.0 | 4.8 | 0.13 | 0.13 | 0.13 | 87 | 1012.1 |
| 20260506203019 | 26 | 271 | 4.8 | 17.7 | 0.10 | 0.10 | 0.10 | 84 | 1012.2 |
| 20260506201524 | 28 | 138 | 4.8 | 14.5 | 0.00 | 0.00 | 0.00 | 79 | 1012.3 |
| 20260506200007 | 28 | 271 | 6.4 | 12.9 | 0.00 | 0.00 | 0.00 | 77 | 1012.4 |
| 20260506194512 | 28 | 188 | 4.8 | 14.5 | 0.00 | 0.00 | 0.00 | 79 | 1012.8 |
| 20260506193014 | 27 | 173 | 4.8 | 20.9 | 0.00 | 0.00 | 0.00 | 80 | 1013.2 |
| 20260506191521 | 27 | 202 | 6.4 | 12.9 | 0.00 | 0.00 | 0.00 | 81 | 1013.5 |
| 20260506190024 | 27 | 145 | 4.8 | 14.5 | 0.00 | 0.00 | 0.00 | 81 | 1013.7 |
| 20260506184507 | 27 | 105 | 4.8 | 22.5 | 0.00 | 0.00 | 0.00 | 81 | 1013.8 |
| 20260506183010 | 27 | 176 | 8.0 | 16.1 | 0.00 | 0.00 | 0.00 | 80 | 1013.8 |
| 20260506181519 | 26 | 102 | 4.8 | 17.7 | 0.00 | 0.00 | 0.00 | 82 | 1013.9 |
| 20260506180020 | 26 | 144 | 6.4 | 11.3 | 0.00 | 0.00 | 0.00 | 83 | 1014.0 |
| 20260506174523 | 26 | 229 | 3.2 | 11.3 | 0.00 | 0.00 | 0.00 | 83 | 1014.2 |
| 20260506173011 | 26 | 201 | 9.7 | 20.9 | 0.00 | 0.00 | 0.00 | 84 | 1014.3 |
| 20260506171514 | 25 | 206 | 6.4 | 14.5 | 0.00 | 0.00 | 0.00 | 86 | 1014.4 |
| 20260506170017 | 25 | 176 | 4.8 | 14.5 | 0.00 | 0.00 | 0.00 | 87 | 1014.4 |
| 20260506164521 | 25 | 148 | 3.2 | 12.9 | 0.00 | 0.00 | 0.00 | 87 | 1014.4 |
| 20260506163025 | 23 | 176 | 1.6 | 8.0 | 0.00 | 0.00 | 0.00 | 89 | 1014.6 |
| 20260506161511 | 23 | 207 | 4.8 | 11.3 | 0.00 | 0.00 | 0.00 | 89 | 1014.6 |
| 20260506160019 | 23 | 174 | 3.2 | 8.0 | 0.00 | 0.00 | 0.00 | 90 | 1014.6 |
| 20260506154524 | 23 | 113 | 3.2 | 11.3 | 0.00 | 0.00 | 0.00 | 90 | 1014.6 |
| 20260506153023 | 22 | 126 | 1.6 | 3.2 | 0.00 | 0.00 | 0.00 | 91 | 1014.6 |
| 20260506151528 | 22 | 116 | 0.0 | 3.2 | 0.00 | 0.00 | 0.00 | 91 | 1014.6 |
| 20260506150012 | 22 | 98 | 0.0 | 1.6 | 0.00 | 0.00 | 0.00 | 91 | 1014.6 |
| 20260506144517 | 22 | 107 | 0.0 | 1.6 | 0.00 | 0.00 | 0.00 | 90 | 1014.7 |
| 20260506143026 | 22 | 105 | 0.0 | 1.6 | 0.00 | 0.00 | 0.00 | 90 | 1014.6 |
| 20260506141503 | 22 | 159 | 0.0 | 1.6 | 0.00 | 0.00 | 0.00 | 90 | 1014.4 |
| 20260506140005 | 22 | 144 | 0.0 | 1.6 | 0.00 | 0.00 | 0.00 | 89 | 1014.3 |
| 20260506134504 | 22 | 173 | 0.0 | 0.0 | 0.00 | 0.00 | 0.00 | 89 | 1014.2 |
| 20260506133007 | 22 | 99 | 1.6 | 3.2 | 0.00 | 0.00 | 0.00 | 88 | 1014.3 |
| 20260506131504 | 22 | 124 | 0.0 | 3.2 | 0.00 | 0.00 | 0.00 | 89 | 1014.0 |
| 20260506130010 | 22 | 135 | 0.0 | 0.0 | 0.00 | 0.00 | 0.00 | 89 | 1014.0 |
| 20260506124505 | 21 | 150 | 0.0 | 1.6 | 0.00 | 0.00 | 0.00 | 89 | 1013.8 |
| 20260506123008 | 21 | 143 | 0.0 | 1.6 | 0.00 | 0.00 | 0.00 | 89 | 1013.7 |
| 20260506121507 | 21 | 115 | 0.0 | 1.6 | 0.00 | 0.00 | 0.00 | 89 | 1013.4 |
| 20260506120008 | 21 | 101 | 0.0 | 1.6 | 0.00 | 0.00 | 0.00 | 89 | 1013.1 |
| 20260506114509 | 21 | 101 | 0.0 | 1.6 | 0.00 | 0.00 | 0.00 | 89 | 1013.0 |
| 20260506113009 | 21 | 101 | 0.0 | 1.6 | 0.00 | 0.00 | 0.00 | 89 | 1012.9 |
| 20260506111509 | 21 | 102 | 1.6 | 3.2 | 0.00 | 0.00 | 0.00 | 88 | 1012.7 |
| 20260506110009 | 21 | 173 | 0.0 | 0.0 | 0.00 | 0.00 | 0.00 | 88 | 1012.7 |
| 20260506104508 | 21 | 174 | 0.0 | 1.6 | 0.00 | 0.00 | 0.00 | 88 | 1012.8 |
| 20260506103023 | 21 | 144 | 0.0 | 1.6 | 0.00 | 0.00 | 0.00 | 87 | 1012.8 |
| 20260506101511 | 21 | 176 | 0.0 | 9.7 | 0.00 | 0.00 | 0.00 | 87 | 1012.7 |
| 20260506100008 | 21 | 176 | 4.8 | 9.7 | 0.00 | 0.00 | 0.00 | 87 | 1012.3 |
| 20260506094525 | 21 | 225 | 3.2 | 11.3 | 0.00 | 0.00 | 0.00 | 86 | 1012.4 |
| 20260506093018 | 21 | 172 | 0.0 | 8.0 | 0.00 | 0.00 | 0.00 | 86 | 1012.4 |
| 20260506091509 | 21 | 221 | 3.2 | 11.3 | 0.00 | 0.00 | 0.00 | 86 | 1012.2 |
| 20260506090013 | 21 | 155 | 4.8 | 11.3 | 0.00 | 0.00 | 0.00 | 86 | 1011.8 |
| 20260506084510 | 21 | 150 | 4.8 | 14.5 | 0.00 | 0.00 | 0.00 | 87 | 1011.5 |
| 20260506083010 | 21 | 204 | 3.2 | 9.7 | 0.00 | 0.00 | 0.00 | 87 | 1011.6 |
| 20260506081512 | 21 | 221 | 3.2 | 9.7 | 0.00 | 0.00 | 0.00 | 88 | 1011.7 |
| 20260506073014 | 21 | 153 | 4.8 | 8.0 | 0.00 | 0.00 | 0.00 | 88 | 1012.1 |
| 20260506071512 | 21 | 133 | 6.4 | 11.3 | 0.00 | 0.00 | 0.00 | 88 | 1012.0 |
| 20260506061524 | 20 | 174 | 3.2 | 12.9 | 0.00 | 0.00 | 0.00 | 89 | 1012.5 |
| 20260506044512 | 20 | 165 | 4.8 | 9.7 | 0.00 | 0.00 | 0.00 | 87 | 1012.8 |
| 20260506043014 | 20 | 158 | 4.8 | 11.3 | 0.00 | 0.00 | 0.00 | 86 | 1013.0 |
| 20260506041508 | 20 | 121 | 4.8 | 8.0 | 0.00 | 0.00 | 0.00 | 86 | 1013.2 |
| 20260506040005 | 21 | 134 | 3.2 | 9.7 | 0.00 | 0.00 | 0.00 | 85 | 1013.2 |
| 20260506034505 | 21 | 135 | 4.8 | 9.7 | 0.00 | 0.00 | 0.00 | 85 | 1013.2 |
| 20260506033010 | 21 | 136 | 4.8 | 9.7 | 0.00 | 0.00 | 0.00 | 84 | 1013.2 |
| 20260506031516 | 21 | 155 | 4.8 | 12.9 | 0.00 | 0.00 | 0.00 | 83 | 1013.2 |
| 20260506030012 | 21 | 104 | 3.2 | 14.5 | 0.00 | 0.00 | 0.00 | 82 | 1013.0 |
| 20260506024505 | 21 | 135 | 6.4 | 16.1 | 0.00 | 0.00 | 0.00 | 82 | 1013.0 |
| 20260506023007 | 22 | 236 | 4.8 | 14.5 | 0.00 | 0.00 | 0.00 | 81 | 1013.0 |
| 20260506021512 | 22 | 82 | 9.7 | 17.7 | 0.00 | 0.00 | 0.00 | 80 | 1012.9 |